#timestamp,LO_Frequency,Hit,StdDev 
1626562815.3,286047003.8,Y
1626562835.2,286046998.3,P
1626562855.9,286047001.1,N
1626562875.7,286047000.7,N
1626562895.6,286046998.7,N
1626562915.4,286047000.6,N
1626562935.2,286047000.6,N
1626562955.1,286047000.6,N
1626562956.0,286047000.6,N
1626562975.8,286046998.7,N
1626562995.7,286046998.8,N
1626563015.5,286046999.1,N
1626563035.3,286046999.3,N
1626563055.2,286046998.8,N
1626563075.0,286046999.5,N
1626563075.9,286046999.5,N
1626563095.7,286046998.6,N
1626563115.6,286047000.0,N
1626563135.4,286046999.9,N
1626563155.3,286047000.3,N
1626563175.1,286046998.5,N
1626563176.0,286046998.5,N
1626563195.8,286046998.2,N
1626563215.7,286046996.7,N
1626563235.5,286046999.1,N
1626563255.3,286046998.8,N
1626563275.2,286046999.5,N
1626563295.0,286046999.4,N
1626563295.9,286046999.4,N
1626563315.8,286046999.3,N
1626563335.6,286046999.6,N
1626563355.4,286046996.9,Y
1626563375.3,286046996.6,P
1626563395.1,286046998.6,N
1626563415.9,286047001.1,N
1626563435.7,286047000.9,N
1626563455.5,286047000.8,N
1626563475.4,286046998.3,N
1626563495.2,286046998.3,N
1626563515.0,286046999.1,N
1626563515.9,286046999.1,N
1626563535.8,286047001.1,N
1626563555.6,286047001.2,N
1626563575.5,286046998.1,N
1626563595.3,286046998.1,N
1626563615.1,286047001.0,N
1626563635.9,286046998.5,N
1626563655.7,286046999.4,N
1626563675.5,286046999.0,N
1626563695.4,286046997.7,N
1626563715.2,286047001.2,N
1626563735.1,286047001.2,N
1626563736.0,286047001.2,N
1626563755.8,286046998.7,N
1626563775.6,286046998.6,N
1626563795.5,286046998.1,N
1626563815.3,286046999.0,N
1626563835.1,286046999.4,N
1626563855.9,286047001.2,N
1626563875.7,286047001.1,N
1626563895.6,286047001.0,N
1626563915.4,286047000.3,N
1626563935.2,286047000.9,N
1626563955.1,286047000.7,N
1626563956.0,286047000.7,N
1626563975.8,286046998.2,N
1626563995.6,286046998.1,N
1626564015.5,286046998.4,N
1626564035.3,286047001.0,N
1626564055.2,286046998.6,N
1626564075.9,286046998.7,N
1626564095.7,286046998.4,N
1626564115.6,286046999.2,N
1626564135.4,286046999.4,N
1626564155.2,286046998.3,N
1626564175.1,286046999.2,N
1626564176.0,286046999.2,N
1626564195.8,286046998.5,N
1626564215.7,286046998.9,N
1626564235.5,286046999.0,N
1626564255.3,286046998.9,N
1626564275.2,286046999.5,N
1626564295.0,286046997.2,N
1626564295.9,286046997.2,N
1626564315.8,286046998.0,N
1626564335.6,286046995.0,Y
1626564355.4,286046996.8,P
1626564375.2,286046999.5,N
1626564395.1,286046999.4,N
1626564396.0,286046999.4,N
1626564415.8,286046999.0,N
1626564435.7,286046998.2,N
1626564455.5,286046999.4,N
1626564475.4,286046998.3,N
1626564495.2,286046999.1,N
1626564515.0,286046996.9,Y
1626564515.9,286046996.9,P
1626564535.8,286046998.5,N
1626564555.6,286047000.4,N
1626564575.4,286047001.0,N
1626564595.3,286046998.1,N
1626564615.1,286046999.9,N
1626564635.9,286047001.0,N
1626564655.7,286046998.1,N
1626564675.5,286046999.8,N
1626564695.4,286047000.1,N
1626564715.2,286047002.7,N
1626564735.0,286047001.5,N
1626564735.9,286047001.5,N
1626564755.8,286047001.9,N
1626564775.6,286047004.3,N
1626564795.5,286047001.7,N
1626564815.3,286047004.1,N
1626564835.1,286047004.2,N
1626564855.9,286047004.2,N
1626564875.7,286047003.1,N
1626564895.5,286047003.2,N
1626564915.4,286047001.4,N
1626564935.2,286047004.0,N
1626564955.1,286047003.1,N
1626564956.0,286047003.1,N
1626564975.8,286047004.1,N
1626564995.6,286047005.2,N
1626565015.5,286047006.0,N
1626565035.3,286047004.7,N
1626565055.1,286047003.1,N
1626565075.9,286047003.8,N
1626565095.7,286047004.2,N
1626565115.6,286047005.8,N
1626565135.4,286047005.7,N
1626565155.2,286047005.3,N
1626565175.1,286047004.9,N
1626565176.0,286047004.9,N
1626565195.8,286047005.4,N
1626565215.7,286047005.0,Y
1626565235.5,286047002.0,P
1626565255.3,286047001.8,N
1626565275.2,286047002.2,N
1626565295.9,286047002.3,Y
1626565315.7,286046996.5,P
1626565335.6,286046995.3,N
1626565355.4,286046997.3,N
1626565375.3,286046997.3,N
1626565395.1,286046997.1,N
1626565396.0,286046997.1,N
1626565415.8,286046995.3,N
1626565435.7,286046993.7,Y
1626565455.5,286046994.9,P
1626565475.3,286046995.1,P
1626565495.2,286046995.7,P
1626565515.0,286046995.7,Y
1626565515.9,286046995.7,P
1626565535.8,286047000.6,P
1626565555.6,286047002.8,N
1626565575.4,286047002.3,N
1626565595.3,286046999.8,N
1626565615.1,286046999.7,N
1626565635.8,286047002.7,N
1626565655.7,286047002.5,N
1626565675.5,286047002.7,N
1626565695.4,286047000.9,N
1626565715.2,286047000.9,N
1626565735.0,286047001.2,N
1626565735.9,286047001.2,N
1626565755.8,286046999.9,N
1626565775.6,286047000.3,N
1626565795.4,286047000.6,N
1626565815.3,286047000.6,N
1626565835.1,286046998.2,N
1626565855.9,286047001.1,N
1626565875.7,286046998.1,N
1626565895.5,286047001.2,N
1626565915.4,286047001.1,N
1626565935.2,286047000.7,N
1626565955.0,286047000.3,N
1626565955.9,286047000.3,N
1626565975.8,286047000.6,N
1626565995.6,286047002.8,N
1626566015.5,286046999.9,N
1626566035.3,286047002.8,N
1626566055.1,286047004.0,N
1626566075.9,286047001.9,N
1626566095.7,286047001.7,N
1626566115.5,286047003.3,N
1626566135.4,286047003.3,N
1626566155.2,286047003.3,N
1626566175.1,286047005.7,Y
1626566176.0,286047005.7,P
1626566195.8,286047003.5,N
1626566215.7,286047004.0,N
1626566235.5,286047001.8,N
1626566255.3,286047002.5,N
1626566275.2,286047001.8,N
1626566295.9,286047001.3,N
1626566315.7,286047001.5,N
1626566335.6,286047004.3,N
1626566355.4,286047003.6,N
1626566375.2,286047004.2,N
1626566395.1,286047001.3,N
1626566396.0,286047001.3,N
